Waukegan, IL

4:13 AM CDT on May 25, 2017 (GMT -0500)
Waukegan Regional

Weather History for KUGN - July, 2013

Change the Weather History Date:

Friday, July 12, 2013

  Actual Average Record
Temperature  
Mean Temperature 63 °F -  
Max Temperature 77 °F 81 °F 91 °F (2016)
Min Temperature 49 °F 63 °F 49 °F (2013)
Degree Days  
Heating Degree Days 2 0  
Month to date heating degree days 7 3  
Since 1 June heating degree days 104 89  
Since 1 July heating degree days 7 3  
Cooling Degree Days 0 7  
Month to date cooling degree days 56 81  
Year to date cooling degree days 193 211  
Since 1 June cooling degree days 146 186  
Growing Degree Days 12 (Base 50)    
Moisture  
Dew Point 56 °F    
Average Humidity 75    
Maximum Humidity 100    
Minimum Humidity 50    
Precipitation  
Precipitation 0.00 in 0.13 in 0.89 in (2008)
Month to date precipitation 0.79 1.48  
Year to date precipitation 18.90 18.22  
Sea Level Pressure  
Sea Level Pressure 30.11 in    
Wind  
Wind Speed 3 mph (NE)    
Max Wind Speed 9 mph    
Max Gust Speed 12 mph    
Visibility 9 miles    
Events      
T = Trace of Precipitation, MM = Missing Value Source: NWS Daily Summary

Daily Weather History Graph

Daily Weather History Graph

Search for Another Location

Airport or City:

Trip Planner

Search our weather history database for the weather conditions in past years. The results will help you decide how hot, cold, wet, or windy it might be!

Date:

Astronomy

Jul. 12, 2013 Rise Set
Actual Time 5:25 AM CDT 8:28 PM CDT
Civil Twilight 4:51 AM CDT 9:02 PM CDT
Nautical Twilight 4:08 AM CDT 9:45 PM CDT
Astronomical Twilight 3:17 AM CDT 10:36 PM CDT
Moon 9:48 AM CDT (7/12) 10:31 PM CDT (7/12)
Length of Visible Light 16h 10m
Length of Day
15h 02m
Waxing Crescent, 17% of the Moon is Illuminated
Jul 12
Waxing Crescent
Jul 15
First Quarter
Jul 22
Full
Jul 29
Last Quarter
Aug 6
New

Hourly Weather History & Observations

Time (CDT) Temp. Dew Point Humidity Pressure Visibility Wind Dir Wind Speed Gust Speed Precip Events Conditions
12:52 AM 55.0 °F 53.1 °F 93% 30.09 in 10.0 mi Calm Calm - N/A   Clear
1:52 AM 54.0 °F 52.0 °F 93% 30.09 in 10.0 mi NW 3.5 mph - N/A   Clear
2:52 AM 53.1 °F 52.0 °F 96% 30.10 in 10.0 mi WNW 3.5 mph - N/A   Clear
3:52 AM 53.1 °F 51.1 °F 93% 30.11 in 10.0 mi Calm Calm - N/A   Clear
4:52 AM 48.9 °F 48.0 °F 97% 30.12 in 10.0 mi Calm Calm - N/A   Clear
5:52 AM 50.0 °F 48.9 °F 96% 30.13 in 8.0 mi Calm Calm - N/A   Clear
6:52 AM 59.0 °F 55.0 °F 87% 30.12 in 10.0 mi Calm Calm - N/A   Clear
7:52 AM 66.0 °F 57.9 °F 75% 30.14 in 10.0 mi NNW 3.5 mph - N/A   Clear
8:52 AM 70.0 °F 57.0 °F 63% 30.15 in 10.0 mi Calm Calm - N/A   Clear
9:52 AM 73.0 °F 57.0 °F 57% 30.14 in 10.0 mi Calm Calm - N/A   Clear
10:52 AM 73.9 °F 59.0 °F 59% 30.14 in 10.0 mi ENE 4.6 mph - N/A   Clear
11:52 AM 75.0 °F 57.0 °F 53% 30.14 in 10.0 mi ENE 3.5 mph - N/A   Clear
12:52 PM 77.0 °F 57.0 °F 50% 30.13 in 10.0 mi ENE 4.6 mph - N/A   Clear
1:52 PM 75.9 °F 57.0 °F 52% 30.12 in 10.0 mi ENE 4.6 mph - N/A   Clear
2:52 PM 75.9 °F 57.9 °F 54% 30.11 in 10.0 mi Variable 5.8 mph - N/A   Clear
3:17 PM 75.2 °F 57.2 °F 53% 30.13 in 1.8 mi ENE 5.8 mph - N/A   Haze
3:26 PM 75.2 °F 57.2 °F 53% 30.13 in 10.0 mi ENE 6.9 mph - N/A   Clear
3:52 PM 75.9 °F 59.0 °F 56% 30.11 in 10.0 mi East 6.9 mph - N/A   Clear
4:52 PM 75.0 °F 59.0 °F 57% 30.11 in 10.0 mi ENE 8.1 mph - N/A   Clear
5:52 PM 73.0 °F 60.1 °F 64% 30.10 in 10.0 mi ENE 8.1 mph - N/A   Clear
6:52 PM 73.0 °F 59.0 °F 61% 30.08 in 10.0 mi ENE 5.8 mph - N/A   Clear
7:52 PM 69.1 °F 59.0 °F 70% 30.09 in 10.0 mi ENE 3.5 mph - N/A   Clear
8:52 PM 63.0 °F 60.1 °F 90% 30.09 in 10.0 mi Calm Calm - N/A   Clear
9:52 PM 60.1 °F 59.0 °F 96% 30.10 in 6.0 mi Calm Calm - N/A   Clear
10:52 PM 60.1 °F 59.0 °F 96% 30.10 in 4.0 mi Calm Calm - N/A   Clear
11:52 PM 59.0 °F 57.9 °F 96% 30.09 in 5.0 mi Calm Calm - N/A   Clear